星链-35610(STARLINK-35610)

导读

STARLINK-35610是美国(US)SpaceX星链星座的卫星,于2025年11月11日发射。星链项目旨在构建全球卫星互联网通信系统,该卫星入轨后将为全球偏远地区、海洋、航空等场景提供低延迟宽带网络服务,进一步扩充星链星座规模,提升全球覆盖能力与服务容量。

基本信息
目录编号:
66428
目录名称:
STARLINK-35610
国际标识:
2025-259G
轨道中心:
EARTH
卫星名称:
星链-35610
卫星全名:
星链-35610(STARLINK-35610)
卫星状态:
在轨 (已飞行297 天)
发射日期:
2025-11-11 UTC
国别 :
美国 (US)
星等 :
--
轨道信息
数据来源 国际轨道数据
星历时间: 2026-09-04T00:19:42+0800
16小时前
查看轨道信息
半长轴: 6861.12km
偏心率: 0.000232
轨道倾角: 43.006°
近地点辐角 282.862°
升交点赤经 349.069°
平近点角 77.197°
近地点: 481.391km
远地点: 484.575km
周期: 94.265分钟
每日圈数: 15.276024
详细信息
固有亮度:
5
最大亮度:
2.5
卫星平台:
Starlink V1.0
覆盖范围:
全球
运营商:
太空探索技术公司
运营商所在国:
美国
制造商(研发单位):
太空探索技术公司
制造商所在国:
美国
使用方式:
暂无
卫星简介
Starlink 计划是 SpaceX 推出的全球卫星互联网项目,通过发射低轨道卫星,为全球尤其是偏远地区提供高速、低延迟的互联网服务。自 2019 年起,Starlink 已部署数千颗卫星,旨在缩小全球数字鸿沟,推动互联网普及。该项目还为军事、航空等行业提供通信支持,带来广泛经济效益。
2D轨道图
3D轨道图
轨道高度分析图
轨道倾角分析图
轨道综合分析图
查看轨道综合分析图
交会数据列表
事件ID 空间交会对象 最接近时刻(TCA) 交会距离 交会风险概率(CRP) 交会风险指数(CRI) 操作
CDM_260904-145105-956506-642821
2026-09-04T
14:51:22+0000
0.448 km
远距离
1.795142E-4 高风险 0.8
CDM_260905-102805-956506-642821
2026-09-05T
10:28:18+0000
0.969 km
远距离
1.900613E-5 中风险 0.61
CDM_260902-222906-395806-642821
2026-09-02T
22:29:54+0000
1.170 km
极远距离
1.00726E-5 中风险 0.55
CDM_260903-000406-395806-642821
2026-09-03T
00:04:03+0000
1.227 km
极远距离
8.535387E-6 低风险 0.54
CDM_260904-073305-304706-642821
2026-09-04T
07:33:47+0000
1.422 km
极远距离
6.307894E-6 低风险 0.51
CDM_260904-131705-956506-642821
2026-09-04T
13:17:13+0000
1.368 km
极远距离
5.820694E-6 低风险 0.5
CDM_260904-221905-977406-642822
OBJECT B (59774)
2026-09-04T
22:19:31+0000
1.483 km
极远距离
4.613997E-6 低风险 0.48
CDM_260904-162505-956506-642821
2026-09-04T
16:25:31+0000
1.477 km
极远距离
4.518536E-6 低风险 0.48
CDM_260905-085405-956506-642821
2026-09-05T
08:54:09+0000
1.541 km
极远距离
3.951052E-6 低风险 0.47
CDM_260902-205506-395806-642821
2026-09-02T
20:55:45+0000
1.768 km
极远距离
2.659391E-6 低风险 0.43